EW2855 Weather Reports


time (UTC)temp
C
wind
direction
speed
KPH
gust
KPH
rain 1hr
cm
rain 24hr
cm
rain mn
cm
humidity
%
barometer
mb
20260506103028 5 236 6.4 12.9 0.00 0.18 0.00 72 1016.0
20260506101533 5 252 8.0 16.1 0.00 0.18 0.00 69 1016.0
20260506100028 6 211 8.0 17.7 0.00 0.18 0.00 67 1015.9
20260506094532 6 211 8.0 20.9 0.00 0.18 0.00 67 1015.9
20260506093030 6 261 8.0 17.7 0.00 0.18 0.00 64 1015.8
20260506091530 6 244 12.9 20.9 0.00 0.18 0.00 62 1015.5
20260506090032 7 274 14.5 22.5 0.00 0.18 0.00 61 1015.5
20260506084528 7 279 11.3 19.3 0.00 0.18 0.00 61 1015.4
20260506083026 7 265 8.0 17.7 0.00 0.18 0.00 61 1015.5
20260506081530 8 282 9.7 22.5 0.00 0.18 0.00 60 1015.4
20260506073031 8 277 16.1 24.1 0.00 0.18 0.00 58 1015.3
20260506071542 8 260 11.3 22.5 0.00 0.18 0.00 58 1015.3
20260506061531 8 238 9.7 16.1 0.00 0.18 0.00 65 1015.1
20260506044523 10 275 14.5 27.4 0.00 0.18 0.18 54 1014.6
20260506043016 10 245 16.1 29.0 0.00 0.18 0.18 56 1014.3
20260506041510 10 252 19.3 30.6 0.00 0.18 0.18 61 1014.0
20260506040014 8 217 6.4 12.9 0.00 0.18 0.18 79 1014.1
20260506034532 8 236 3.2 4.8 0.00 0.18 0.18 81 1013.8
20260506033030 8 175 0.0 6.4 0.00 0.18 0.18 80 1013.8
20260506031534 8 192 4.8 9.7 0.00 0.18 0.18 76 1013.6
20260506030025 9 194 6.4 11.3 0.00 0.18 0.18 74 1013.5
20260506024532 9 229 6.4 17.7 0.00 0.18 0.18 71 1013.2
20260506023017 10 202 9.7 19.3 0.00 0.18 0.18 71 1013.2
20260506021511 10 270 12.9 24.1 0.00 0.18 0.18 66 1012.8
20260506020027 9 238 14.5 30.6 0.00 0.18 0.18 68 1012.5
20260506014512 10 207 16.1 51.5 0.00 0.18 0.18 61 1012.7
20260506013032 13 216 12.9 20.9 0.00 0.18 0.18 51 1012.1
20260506011526 13 221 11.3 24.1 0.00 0.18 0.18 49 1011.6
20260506010030 15 246 11.3 22.5 0.00 0.18 0.18 46 1011.5
20260506004532 15 243 17.7 32.2 0.00 0.18 0.18 45 1011.6
20260506003010 16 248 14.5 38.6 0.00 0.18 0.18 45 1011.5
20260506001523 16 241 12.9 30.6 0.00 0.18 0.18 45 1011.5
20260506000025 16 264 17.7 30.6 0.00 0.18 0.18 43 1011.4
20260505234510 17 261 19.3 30.6 0.00 0.18 0.18 42 1011.4
20260505233017 17 250 16.1 29.0 0.00 0.18 0.18 42 1011.3
20260505231532 17 285 12.9 22.5 0.00 0.18 0.18 42 1011.1
20260505230041 17 265 9.7 29.0 0.00 0.18 0.18 43 1011.3
20260505224504 17 336 14.5 30.6 0.00 0.18 0.18 42 1011.2
20260505223009 17 279 17.7 33.8 0.00 0.18 0.18 42 1011.5
20260505221513 16 244 25.7 43.5 0.00 0.18 0.18 45 1011.7
20260505220026 17 237 22.5 35.4 0.00 0.18 0.18 40 1011.5
20260505214519 18 234 16.1 29.0 0.00 0.18 0.18 41 1011.4
20260505213047 18 254 14.5 25.7 0.00 0.18 0.18 42 1011.5
20260505211528 18 234 14.5 35.4 0.00 0.18 0.18 43 1011.6
20260505210011 18 288 12.9 33.8 0.00 0.18 0.18 48 1011.7
20260505204508 17 285 19.3 29.0 0.00 0.18 0.18 48 1011.7
20260505203039 16 331 17.7 27.4 0.00 0.18 0.18 53 1011.9
20260505201510 15 263 14.5 29.0 0.00 0.18 0.18 51 1011.8
20260505200026 15 205 17.7 38.6 0.00 0.18 0.18 52 1012.0
20260505194516 16 199 11.3 30.6 0.00 0.18 0.18 51 1012.1
20260505193013 15 227 14.5 29.0 0.00 0.18 0.18 59 1012.6
20260505191527 14 234 8.0 24.1 0.00 0.18 0.18 63 1013.1
20260505190019 13 221 8.0 24.1 0.00 0.18 0.18 65 1013.4
20260505184523 12 215 14.5 25.7 0.00 0.18 0.18 69 1013.8
20260505183022 11 206 11.3 27.4 0.00 0.18 0.18 77 1013.8
20260505181521 11 225 9.7 24.1 0.00 0.18 0.18 80 1014.3
20260505180008 10 202 6.4 20.9 0.00 0.18 0.18 86 1014.2
20260505174530 9 235 6.4 19.3 0.00 0.18 0.18 88 1014.4
20260505173039 10 239 9.7 17.7 0.03 0.18 0.18 90 1014.3
20260505171530 9 188 8.0 14.5 0.03 0.18 0.18 91 1014.2
20260505170029 8 187 8.0 14.5 0.08 0.18 0.18 91 1014.3
20260505164544 8 212 4.8 9.7 0.10 0.18 0.18 90 1014.5
20260505163025 8 198 4.8 9.7 0.10 0.15 0.15 90 1014.3
20260505161542 8 217 3.2 9.7 0.13 0.15 0.15 90 1014.5
20260505153013 8 203 4.8 9.7 0.05 0.05 0.05 86 1014.4
20260505151522 8 238 4.8 20.9 0.03 0.03 0.03 83 1014.5
20260505124527 11 278 11.3 20.9 0.00 0.00 0.00 57 1014.1
20260505123029 11 263 16.1 25.7 0.00 0.00 0.00 57 1014.3
20260505121537 10 258 14.5 24.1 0.00 0.00 0.00 57 1014.0
20260505120032 11 284 6.4 16.1 0.00 0.00 0.00 56 1013.9
20260505114538 11 269 9.7 17.7 0.00 0.00 0.00 55 1014.1
20260505113030 11 266 9.7 22.5 0.00 0.00 0.00 55 1014.3
20260505111532 11 260 11.3 22.5 0.00 0.00 0.00 55 1014.1